Regional Weather Roundup
Issued by NWS Kansas City/Pleasant Hill, MO

Home | Current Version | Previous Version | Graphics & Text | Print | Product List | Glossary Off
Versions: 1 2 3 4 5 6 7 8 9 10 11 12 13 14 15 16 17 18 19 20 21 22 23 24 25 26 27 28 29 30 31 32 33 34 35 36 37 38 39 40 41 42 43 44 45 46 47 48 49 50

000
ASUS43 KEAX 020110
RWREAX

WEATHER ROUNDUP FOR EASTERN KANSAS AND NORTHWEST MISSOURI
NATIONAL WEATHER SERVICE KANSAS CITY/PLEASANT HILL MO
800 PM CDT TUE SEP 01 2015

KSZ040-057-103>105-MOZ028-029-037-043-020200-
...KANSAS CITY METROPOLITAN AREA...

CITY           SKY/WX    TMP DP  RH WIND       PRES   REMARKS
K.C. INTL      PTCLDY    77  67  71 S7        30.00R
K.C. DOWNTOWN  CLEAR     84  66  54 S8        29.98S
LEES SUMMIT    CLEAR     82  65  56 S7        30.01R
OLATHE - IXD   CLEAR     78  68  71 S7        30.01S
OLATHE - OJC   CLEAR     77  68  73 S6        30.00S
LAWRENCE       CLEAR     78  67  68 SE8       29.98R

$$

MOZ001>008-011>017-020>025-030>033-038>040-044>046-053-054-020200-
...NORTHERN AND CENTRAL MISSOURI...

CITY           SKY/WX    TMP DP  RH WIND       PRES   REMARKS
ST. JOSEPH     CLEAR     80  68  66 S9        29.96S
MOSBY          CLEAR     82  66  57 S3        29.99S
WARRENSBURG    CLEAR     79  66  65 CALM      30.01R
WHITEMAN AFB   PTCLDY    79  67  66 SW7       30.01R
CLINTON        CLEAR     82  68  61 CALM      30.02R
SEDALIA        CLEAR     80  69  69 S3        30.03R
WARSAW         NOT AVBL
CHILLICOTHE      N/A     82  69  64 CALM      30.00R
KIRKSVILLE     CLEAR     80  70  71 S3        30.02R

$$

MOZ041-047>049-056>058-063>065-088>090-097-020200-
...EASTERN AND SOUTHERN MISSOURI...

CITY           SKY/WX    TMP DP  RH WIND       PRES   REMARKS
ST. LOUIS INTL PTCLDY    87  68  52 S7        30.05S HX  90
SPIRIT OF STL  CLEAR     80  73  79 S3        30.03S
COLUMBIA       PTCLDY    77  70  79 SE5       30.04S
JEFFERSON CITY PTCLDY    81  70  69 E3        30.02S
ROLLA          PTCLDY    78  69  73 SE3       30.06S
OSAGE BEACH    CLEAR     81  66  61 SE3       30.05S
SPRINGFIELD    CLEAR     78  67  68 S5        30.05S
BRANSON        CLEAR     77  68  73 CALM      30.07S
JOPLIN         CLEAR     77  65  66 S7        30.04R
WEST PLAINS    CLEAR     78  71  79 CALM      30.10S

$$

IAZ060-094-KSZ022-034>040-054-083-096-NEZ052-066-093-020200-
...KANSAS...SOUTHEAST NEBRASKA AND IOWA...

CITY           SKY/WX    TMP DP  RH WIND       PRES   REMARKS
TOPEKA         CLEAR     81  68  64 SE9       29.97R
MANHATTAN      PTCLDY    84  66  54 S12       29.92S
EMPORIA        CLEAR     80  65  59 SE13      29.97S
CHANUTE        PTCLDY    78  69  73 SE6       30.00F
WICHITA        PTCLDY    84  67  56 SE16      29.94R
OMAHA          MOCLDY    83  70  64 SE15      29.89S
LINCOLN        MOCLDY    84  64  50 S13       29.88S
FALLS CITY     PTCLDY    80  67  64 SE9       29.94R
LAMONI         PTCLDY    80  69  69 S7        29.98S
DES MOINES     MOCLDY    82  70  66 S7        29.95S

$$



USA.gov is the U.S. government's official web portal to all federal, state and local government web resources and services.